Terminal Aerodrome Forecast
Issued by NWS St Louis, MO

Home | Current Version | Previous Version | Text Only | Print | Product List | Glossary On
Versions: 1 2 3 4 5 6 7 8 9 10 11 12 13 14 15 16 17 18 19 20 21 22 23 24 25 26
000
FTUS43 KLSX 231400 AAA
TAFSTL
TAF AMD
KSTL 231450Z 2315/2418 09009KT P6SM SCT250
     FM231900 11013KT P6SM BKN120
     FM241400 16014G22KT P6SM OVC100=

USA.gov is the U.S. government's official web portal to all federal, state and local government web resources and services.